Theta_e
311 308 305 307 316 318 323 323 322 323 333 338 327 338 342 346 355 356 357 360 363 365 365 366 365 363 362 362 362 362 362 363
307 306 312 313 317 320 320 324 323 325 330 334 343 344 344 349 353 353 353 358 362 364 364 365 365 364 363 363 362 362 363 363
306 308 313 318 320 321 320 322 321 324 330 332 343 346 346 350 351 350 352 359 359 363 364 365 365 364 363 362 362 362 362 362
303 308 315 318 321 323 323 323 322 320 333 338 345 343 345 348 349 349 356 355 357 362 363 363 363 363 362 361 362 362 362 361
306 309 313 317 322 321 322 321 321 323 325 340 342 345 346 347 350 353 356 352 356 356 361 363 362 362 362 361 361 361 360 360
307 308 309 319 321 324 323 321 327 326 321 333 339 346 346 346 348 352 352 350 351 353 353 356 359 362 361 361 361 360 360 360
305 309 312 318 318 324 327 323 323 324 340 344 346 347 344 343 346 348 349 350 348 347 350 349 350 357 359 359 359 359 359 359
311 313 311 316 316 320 320 318 318 322 345 347 345 344 341 341 342 344 347 347 348 347 348 347 345 353 351 350 352 352 351 355
311 315 316 317 316 321 313 315 318 319 327 345 343 344 342 341 342 343 347 346 347 350 351 348 347 349 348 347 347 349 350 353
312 315 316 314 318 313 313 316 320 322 325 333 343 340 340 340 342 343 345 346 348 352 352 354 353 351 349 348 348 347 349 355
312 314 313 317 312 312 312 317 320 319 321 324 337 338 341 342 343 344 345 347 348 353 354 358 361 354 350 351 350 351 350 354
313 313 314 311 314 313 313 318 319 318 317 319 330 333 336 343 341 342 347 348 351 353 359 359 364 363 358 356 354 355 355 354
311 312 311 314 307 308 314 316 316 319 318 320 320 332 335 341 344 342 344 350 355 356 360 361 363 367 361 364 359 356 360 361
310 312 313 311 302 312 317 315 314 319 319 320 320 323 336 344 338 333 331 347 353 354 360 363 362 365 364 361 361 363 358 362
304 312 310 309 304 313 317 317 314 317 319 319 318 321 331 338 332 333 334 329 353 357 360 362 367 364 364 367 367 360 363 359
300 306 308 306 307 312 316 316 315 316 317 318 320 321 325 333 329 327 328 335 354 358 364 364 364 366 363 362 362 366 364 358
303 306 306 306 308 310 313 316 314 314 314 315 318 322 323 326 328 327 333 338 345 358 366 362 362 359 357 357 358 358 363 363
304 307 308 307 307 309 310 314 315 313 313 314 315 320 324 323 328 327 341 346 346 353 369 362 359 359 357 353 354 356 356 360
300 305 306 305 305 303 307 309 314 314 315 317 314 314 321 327 330 337 338 343 347 351 358 365 360 361 363 363 361 357 354 357
300 297 294 304 290 300 303 304 308 312 313 313 314 316 316 319 324 338 337 338 344 351 357 359 361 357 357 349 348 348 355 356
Wind_Speed
10 14 17 18 21 21 11 10 4 3 6 14 8 14 5 16 24 21 18 17 16 18 17 16 15 16 16 15 15 15 14 13
13 20 21 25 25 25 19 8 5 8 7 13 42 16 11 19 22 19 20 19 17 19 18 18 17 16 16 16 15 15 14 13
16 23 25 23 24 20 4 19 10 10 15 17 10 20 21 21 19 19 19 18 17 17 18 18 17 17 16 16 15 14 14 13
18 24 24 24 24 5 13 17 7 8 15 16 21 17 18 20 19 19 19 17 17 17 17 17 16 16 16 15 15 14 14 13
23 22 25 24 23 5 13 16 15 6 9 7 19 17 17 17 17 20 19 17 14 15 14 15 15 14 14 14 14 14 13 12
22 20 26 24 22 17 21 18 18 4 12 12 12 21 20 21 19 20 18 18 15 14 14 12 12 15 14 13 12 12 12 12
27 25 21 22 19 10 15 15 8 3 17 17 15 20 18 19 21 18 18 17 16 17 14 13 13 12 13 14 13 12 11 11
22 23 13 4 10 19 14 9 9 11 21 21 19 10 17 17 18 20 21 20 17 16 15 14 12 12 10 10 8 8 9 10
25 19 10 5 9 23 27 16 14 13 10 18 21 20 21 21 20 19 21 15 19 16 15 15 13 10 6 6 6 7 10 10
23 17 18 10 15 20 19 22 14 12 4 4 20 18 19 19 20 20 20 19 20 19 15 11 12 10 9 9 8 7 8 10
28 17 12 23 14 15 21 26 20 17 12 9 7 15 15 13 16 19 19 18 20 19 14 9 11 11 11 9 10 10 10 10
19 16 14 22 20 15 21 17 28 18 20 13 12 11 42 13 13 16 17 18 19 17 13 10 5 7 8 7 10 9 10 11
13 21 19 24 22 24 21 17 23 29 19 23 16 19 18 10 13 21 11 17 18 15 14 10 8 4 6 4 5 7 6 11
22 23 19 20 21 19 19 20 20 22 22 20 23 16 10 2 9 12 18 18 13 13 15 13 9 5 3 5 5 3 6 6
20 19 20 25 24 20 20 20 14 20 23 23 21 21 9 13 15 15 11 35 10 11 18 15 10 7 6 6 4 6 4 4
22 12 26 23 24 20 18 23 20 18 20 25 26 17 17 13 19 20 24 34 6 8 10 15 10 7 8 7 5 3 4 5
22 21 29 26 24 20 22 14 22 17 16 20 22 17 16 11 24 30 27 8 3 5 7 11 9 9 7 8 7 7 5 8
28 30 24 25 28 21 19 19 21 21 16 16 20 13 21 17 9 7 10 9 7 3 2 6 6 6 7 8 7 9 10 11
26 25 33 26 30 20 23 18 21 18 17 14 21 17 13 4 5 2 8 8 8 7 6 5 6 5 2 1 2 3 4 8
16 14 17 27 13 15 21 22 21 20 18 14 16 11 19 12 10 2 1 7 8 8 6 7 7 6 6 4 4 5 4 8
Wind_Direction
243 240 245 259 250 242 207 125 174 263 90 92 7 306 132 119 113 127 138 137 134 131 131 131 133 135 135 137 139 139 141 138
260 250 237 249 268 308 315 153 184 213 61 111 161 203 134 126 124 141 146 134 136 133 134 135 137 139 139 140 141 143 144 140
241 242 254 255 250 276 264 314 192 225 115 133 126 120 145 132 141 144 140 133 140 135 136 138 140 143 142 142 145 148 145 143
236 247 244 251 262 198 235 243 225 223 129 105 116 137 143 138 149 147 124 143 143 138 139 140 143 144 143 145 149 150 149 148
248 252 246 242 248 149 268 244 255 179 144 97 134 140 147 146 143 128 131 141 147 146 139 139 142 144 144 148 154 152 152 151
239 248 257 257 242 230 217 259 263 217 203 169 198 160 158 153 141 137 143 146 151 149 154 156 154 150 148 151 154 152 151 153
243 236 251 267 346 302 274 237 298 255 87 113 156 151 164 156 146 150 145 151 156 158 159 168 158 156 148 157 156 154 155 159
242 252 303 294 341 271 263 272 257 239 109 126 122 246 167 166 153 157 149 160 158 159 161 170 163 149 166 165 172 180 177 172
249 253 321 158 175 255 312 220 229 248 167 152 175 181 170 173 166 161 155 161 158 156 165 174 155 153 169 164 176 186 184 171
235 258 317 214 200 288 305 296 3 334 25 300 183 192 188 180 167 163 161 163 156 154 166 185 142 157 173 169 178 179 190 174
241 256 324 297 238 261 291 295 327 319 312 280 15 319 214 190 170 165 163 158 157 152 163 189 150 163 172 182 176 183 182 181
274 224 247 292 266 260 269 306 317 308 299 290 133 61 287 206 188 169 164 155 150 154 159 173 190 158 167 188 176 179 178 179
220 276 231 267 258 250 257 278 293 315 282 300 284 165 233 307 35 13 11 148 145 153 161 170 183 185 166 176 193 181 181 170
213 240 220 243 267 268 254 257 286 295 306 291 290 279 227 315 94 27 349 304 158 161 168 169 172 180 205 189 183 226 186 157
234 234 237 226 251 257 259 248 246 279 297 304 268 290 299 91 102 122 317 285 161 170 166 165 164 177 198 212 212 190 166 149
221 226 224 226 229 237 233 259 208 250 285 295 298 261 284 139 132 145 172 257 176 164 161 163 163 180 186 210 195 179 165 161
223 221 243 216 225 227 249 214 213 226 245 271 299 232 252 277 160 172 204 142 232 167 157 157 164 175 206 200 199 192 191 185
230 222 216 208 224 224 228 224 221 215 233 273 305 294 226 231 204 174 161 159 155 213 193 164 164 180 188 207 203 185 200 185
226 205 209 221 220 216 212 213 214 209 244 275 282 297 316 347 340 247 131 154 153 174 187 196 191 174 194 238 200 188 190 160
242 215 218 207 242 215 202 207 207 195 219 207 264 337 296 308 301 309 187 173 171 171 200 196 209 181 181 196 202 225 161 160